Location: Taukkyan
(23.1052°N, 94.0030°E)
Time: 11:42:12
(UTC+00:00)

Cosmos 2333 Rocket - Pass Details

Date: 06 July 2020
Orbit: 837 x 864 km, 70.8° (Epoch: 14 August)

Event Time Altitude Azimuth Distance (km) Brightness Sun altitude
Exits shadow 13:37:38 19° 126° (SE) 1,879 3.4 -13.7°
Maximum altitude 13:39:18 22° 102° (ESE) 1,755 3.3 -14.0°
Drops below altitude 10° 13:43:33 10° 53° (NE) 2,467 4.4 -14.9°
Sets 13:46:31 0° 38° (NE) 3,409 5.3 -15.4°
